Aviation Digital Data Service (ADDS)

Output produced by METARs form (0236 UTC 22 July 2017)
found at http://www.aviationweather.gov/adds/metars/
 
ORBD 220155Z 35008KT 9999 FEW010 33/06 A2952 RMK WND DATA/ALSTG ESTMD FIRST
TAF ORBD 2119/2301 32009KT 9999 SKC QNH2946INS 
     TEMPO 2207/2214 32015G25KT FEW180 WND 270V360 TX49/2212Z TN32/2203Z LIMITED METWATCH 2120 TIL 2203
       
ORBI 220200Z 32007KT CAVOK 29/07 Q1000 NOSIG
TAF ORBI 212200Z 2200/2224 31008KT CAVOK 
     BECMG 2205/2208 33018KT 8000 NSC
       
ORER 220000Z VRB03KT CAVOK 28/01 Q1005 NOSIG
TAF ORER 212200Z 2200/2224 33008KT CAVOK 
     BECMG 2206/2208 07006KT 8000 NSC
       
ORMM 220200Z 28006KT CAVOK 29/05 Q0997 NOSIG
TAF ORMM 212200Z 2200/2224 VRB03KT CAVOK 
     BECMG 2208/2210 18010KT
       
ORNI 220200Z 33011KT 7000 NSC 35/08 Q0999 NOSIG
TAF ORNI 212200Z 2200/2224 32010KT 7000 NSC 
     BECMG 2205/2208 33018KT
       
ORSU 220200Z 31006KT CAVOK 22/01 Q1009
TAF ORSU 212300Z 2200/2300 VRB04KT CAVOK 
     TEMPO 2208/2214 31012KT 
     BECMG 2214/2216 32008KT
       
ORBD 220155Z 35008KT 9999 FEW010 33/06 A2952 RMK WND DATA/ALSTG ESTMD FIRST
TAF ORBD 2119/2301 32009KT 9999 SKC QNH2946INS 
     TEMPO 2207/2214 32015G25KT FEW180 WND 270V360 TX49/2212Z TN32/2203Z LIMITED METWATCH 2120 TIL 2203
       
ORBI 220200Z 32007KT CAVOK 29/07 Q1000 NOSIG
TAF ORBI 212200Z 2200/2224 31008KT CAVOK 
     BECMG 2205/2208 33018KT 8000 NSC
       
ORER 220000Z VRB03KT CAVOK 28/01 Q1005 NOSIG
TAF ORER 212200Z 2200/2224 33008KT CAVOK 
     BECMG 2206/2208 07006KT 8000 NSC
       
ORMM 220200Z 28006KT CAVOK 29/05 Q0997 NOSIG
TAF ORMM 212200Z 2200/2224 VRB03KT CAVOK 
     BECMG 2208/2210 18010KT
       
ORNI 220200Z 33011KT 7000 NSC 35/08 Q0999 NOSIG
TAF ORNI 212200Z 2200/2224 32010KT 7000 NSC 
     BECMG 2205/2208 33018KT
       
ORSU 220200Z 31006KT CAVOK 22/01 Q1009
TAF ORSU 212300Z 2200/2300 VRB04KT CAVOK 
     TEMPO 2208/2214 31012KT 
     BECMG 2214/2216 32008KT
       
ORBD 220155Z 35008KT 9999 FEW010 33/06 A2952 RMK WND DATA/ALSTG ESTMD FIRST
TAF ORBD 2119/2301 32009KT 9999 SKC QNH2946INS 
     TEMPO 2207/2214 32015G25KT FEW180 WND 270V360 TX49/2212Z TN32/2203Z LIMITED METWATCH 2120 TIL 2203
       
ORBI 220200Z 32007KT CAVOK 29/07 Q1000 NOSIG
TAF ORBI 212200Z 2200/2224 31008KT CAVOK 
     BECMG 2205/2208 33018KT 8000 NSC
       
ORER 220000Z VRB03KT CAVOK 28/01 Q1005 NOSIG
TAF ORER 212200Z 2200/2224 33008KT CAVOK 
     BECMG 2206/2208 07006KT 8000 NSC
       
ORMM 220200Z 28006KT CAVOK 29/05 Q0997 NOSIG
TAF ORMM 212200Z 2200/2224 VRB03KT CAVOK 
     BECMG 2208/2210 18010KT
       
ORNI 220200Z 33011KT 7000 NSC 35/08 Q0999 NOSIG
TAF ORNI 212200Z 2200/2224 32010KT 7000 NSC 
     BECMG 2205/2208 33018KT
       
ORSU 220200Z 31006KT CAVOK 22/01 Q1009
TAF ORSU 212300Z 2200/2300 VRB04KT CAVOK 
     TEMPO 2208/2214 31012KT 
     BECMG 2214/2216 32008KT
       
ORBD 220155Z 35008KT 9999 FEW010 33/06 A2952 RMK WND DATA/ALSTG ESTMD FIRST
TAF ORBD 2119/2301 32009KT 9999 SKC QNH2946INS 
     TEMPO 2207/2214 32015G25KT FEW180 WND 270V360 TX49/2212Z TN32/2203Z LIMITED METWATCH 2120 TIL 2203
       
ORBI 220200Z 32007KT CAVOK 29/07 Q1000 NOSIG
TAF ORBI 212200Z 2200/2224 31008KT CAVOK 
     BECMG 2205/2208 33018KT 8000 NSC
       
ORER 220000Z VRB03KT CAVOK 28/01 Q1005 NOSIG
TAF ORER 212200Z 2200/2224 33008KT CAVOK 
     BECMG 2206/2208 07006KT 8000 NSC
       
ORMM 220200Z 28006KT CAVOK 29/05 Q0997 NOSIG
TAF ORMM 212200Z 2200/2224 VRB03KT CAVOK 
     BECMG 2208/2210 18010KT
       
ORNI 220200Z 33011KT 7000 NSC 35/08 Q0999 NOSIG
TAF ORNI 212200Z 2200/2224 32010KT 7000 NSC 
     BECMG 2205/2208 33018KT
       
ORSU 220200Z 31006KT CAVOK 22/01 Q1009
TAF ORSU 212300Z 2200/2300 VRB04KT CAVOK 
     TEMPO 2208/2214 31012KT 
     BECMG 2214/2216 32008KT
       
ORBD 220155Z 35008KT 9999 FEW010 33/06 A2952 RMK WND DATA/ALSTG ESTMD FIRST
TAF ORBD 2119/2301 32009KT 9999 SKC QNH2946INS 
     TEMPO 2207/2214 32015G25KT FEW180 WND 270V360 TX49/2212Z TN32/2203Z LIMITED METWATCH 2120 TIL 2203
       
ORBI 220200Z 32007KT CAVOK 29/07 Q1000 NOSIG
TAF ORBI 212200Z 2200/2224 31008KT CAVOK 
     BECMG 2205/2208 33018KT 8000 NSC
       
ORER 220000Z VRB03KT CAVOK 28/01 Q1005 NOSIG
TAF ORER 212200Z 2200/2224 33008KT CAVOK 
     BECMG 2206/2208 07006KT 8000 NSC
       
ORMM 220200Z 28006KT CAVOK 29/05 Q0997 NOSIG
TAF ORMM 212200Z 2200/2224 VRB03KT CAVOK 
     BECMG 2208/2210 18010KT
       
ORNI 220200Z 33011KT 7000 NSC 35/08 Q0999 NOSIG
TAF ORNI 212200Z 2200/2224 32010KT 7000 NSC 
     BECMG 2205/2208 33018KT
       
ORSU 220200Z 31006KT CAVOK 22/01 Q1009
TAF ORSU 212300Z 2200/2300 VRB04KT CAVOK 
     TEMPO 2208/2214 31012KT 
     BECMG 2214/2216 32008KT
       
ORMM 220200Z 28006KT CAVOK 29/05 Q0997 NOSIG
TAF ORMM 212200Z 2200/2224 VRB03KT CAVOK 
     BECMG 2208/2210 18010KT
       
ORBD 220155Z 35008KT 9999 FEW010 33/06 A2952 RMK WND DATA/ALSTG ESTMD FIRST
TAF ORBD 2119/2301 32009KT 9999 SKC QNH2946INS 
     TEMPO 2207/2214 32015G25KT FEW180 WND 270V360 TX49/2212Z TN32/2203Z LIMITED METWATCH 2120 TIL 2203
       
ORBI 220200Z 32007KT CAVOK 29/07 Q1000 NOSIG
TAF ORBI 212200Z 2200/2224 31008KT CAVOK 
     BECMG 2205/2208 33018KT 8000 NSC
       
ORER 220000Z VRB03KT CAVOK 28/01 Q1005 NOSIG
TAF ORER 212200Z 2200/2224 33008KT CAVOK 
     BECMG 2206/2208 07006KT 8000 NSC
       
ORMM 220200Z 28006KT CAVOK 29/05 Q0997 NOSIG
TAF ORMM 212200Z 2200/2224 VRB03KT CAVOK 
     BECMG 2208/2210 18010KT
       
ORNI 220200Z 33011KT 7000 NSC 35/08 Q0999 NOSIG
TAF ORNI 212200Z 2200/2224 32010KT 7000 NSC 
     BECMG 2205/2208 33018KT
       
ORSU 220200Z 31006KT CAVOK 22/01 Q1009
TAF ORSU 212300Z 2200/2300 VRB04KT CAVOK 
     TEMPO 2208/2214 31012KT 
     BECMG 2214/2216 32008KT
       
ORBD 220155Z 35008KT 9999 FEW010 33/06 A2952 RMK WND DATA/ALSTG ESTMD FIRST
TAF ORBD 2119/2301 32009KT 9999 SKC QNH2946INS 
     TEMPO 2207/2214 32015G25KT FEW180 WND 270V360 TX49/2212Z TN32/2203Z LIMITED METWATCH 2120 TIL 2203
       
ORBI 220200Z 32007KT CAVOK 29/07 Q1000 NOSIG
TAF ORBI 212200Z 2200/2224 31008KT CAVOK 
     BECMG 2205/2208 33018KT 8000 NSC
       
ORER 220000Z VRB03KT CAVOK 28/01 Q1005 NOSIG
TAF ORER 212200Z 2200/2224 33008KT CAVOK 
     BECMG 2206/2208 07006KT 8000 NSC
       
ORMM 220200Z 28006KT CAVOK 29/05 Q0997 NOSIG
TAF ORMM 212200Z 2200/2224 VRB03KT CAVOK 
     BECMG 2208/2210 18010KT
       
ORNI 220200Z 33011KT 7000 NSC 35/08 Q0999 NOSIG
TAF ORNI 212200Z 2200/2224 32010KT 7000 NSC 
     BECMG 2205/2208 33018KT
       
ORSU 220200Z 31006KT CAVOK 22/01 Q1009
TAF ORSU 212300Z 2200/2300 VRB04KT CAVOK 
     TEMPO 2208/2214 31012KT 
     BECMG 2214/2216 32008KT
       
ORBD 220155Z 35008KT 9999 FEW010 33/06 A2952 RMK WND DATA/ALSTG ESTMD FIRST
TAF ORBD 2119/2301 32009KT 9999 SKC QNH2946INS 
     TEMPO 2207/2214 32015G25KT FEW180 WND 270V360 TX49/2212Z TN32/2203Z LIMITED METWATCH 2120 TIL 2203
       
ORBI 220200Z 32007KT CAVOK 29/07 Q1000 NOSIG
TAF ORBI 212200Z 2200/2224 31008KT CAVOK 
     BECMG 2205/2208 33018KT 8000 NSC
       
ORER 220000Z VRB03KT CAVOK 28/01 Q1005 NOSIG
TAF ORER 212200Z 2200/2224 33008KT CAVOK 
     BECMG 2206/2208 07006KT 8000 NSC
       
ORMM 220200Z 28006KT CAVOK 29/05 Q0997 NOSIG
TAF ORMM 212200Z 2200/2224 VRB03KT CAVOK 
     BECMG 2208/2210 18010KT
       
ORNI 220200Z 33011KT 7000 NSC 35/08 Q0999 NOSIG
TAF ORNI 212200Z 2200/2224 32010KT 7000 NSC 
     BECMG 2205/2208 33018KT
       
ORSU 220200Z 31006KT CAVOK 22/01 Q1009
TAF ORSU 212300Z 2200/2300 VRB04KT CAVOK 
     TEMPO 2208/2214 31012KT 
     BECMG 2214/2216 32008KT
       
ORBD 220155Z 35008KT 9999 FEW010 33/06 A2952 RMK WND DATA/ALSTG ESTMD FIRST
TAF ORBD 2119/2301 32009KT 9999 SKC QNH2946INS 
     TEMPO 2207/2214 32015G25KT FEW180 WND 270V360 TX49/2212Z TN32/2203Z LIMITED METWATCH 2120 TIL 2203
       
ORBI 220200Z 32007KT CAVOK 29/07 Q1000 NOSIG
TAF ORBI 212200Z 2200/2224 31008KT CAVOK 
     BECMG 2205/2208 33018KT 8000 NSC
       
ORER 220000Z VRB03KT CAVOK 28/01 Q1005 NOSIG
TAF ORER 212200Z 2200/2224 33008KT CAVOK 
     BECMG 2206/2208 07006KT 8000 NSC
       
ORMM 220200Z 28006KT CAVOK 29/05 Q0997 NOSIG
TAF ORMM 212200Z 2200/2224 VRB03KT CAVOK 
     BECMG 2208/2210 18010KT
       
ORNI 220200Z 33011KT 7000 NSC 35/08 Q0999 NOSIG
TAF ORNI 212200Z 2200/2224 32010KT 7000 NSC 
     BECMG 2205/2208 33018KT
       
ORSU 220200Z 31006KT CAVOK 22/01 Q1009
TAF ORSU 212300Z 2200/2300 VRB04KT CAVOK 
     TEMPO 2208/2214 31012KT 
     BECMG 2214/2216 32008KT